"Time","Value","Approval","myLocation"
"2023-05-06 00:00",1.22999967781247,"Approved","OW259"
"2023-05-06 01:00",1.23199967781247,"Approved","OW259"
"2023-05-06 02:00",1.21799967781247,"Approved","OW259"
"2023-05-06 03:00",1.22199967781247,"Approved","OW259"
"2023-05-06 04:00",1.21499967781247,"Approved","OW259"
"2023-05-06 05:00",1.20899967781247,"Approved","OW259"
"2023-05-06 06:00",1.21299967781247,"Approved","OW259"
"2023-05-06 07:00",1.22199967781247,"Approved","OW259"
"2023-05-06 08:00",1.22399967781247,"Approved","OW259"
"2023-05-06 09:00",1.22699967781247,"Approved","OW259"
"2023-05-06 10:00",1.23699967781247,"Approved","OW259"
"2023-05-06 11:00",1.23099967781247,"Approved","OW259"
"2023-05-06 12:00",1.22699967781247,"Approved","OW259"
"2023-05-06 13:00",1.23499967781247,"Approved","OW259"
"2023-05-06 14:00",1.23499967781247,"Approved","OW259"
"2023-05-06 15:00",1.23599967781247,"Approved","OW259"
"2023-05-06 16:00",1.22999967781247,"Approved","OW259"
"2023-05-06 17:00",1.23399967781247,"Approved","OW259"
"2023-05-06 18:00",1.22999967781247,"Approved","OW259"
"2023-05-06 19:00",1.23199967781247,"Approved","OW259"
"2023-05-06 20:00",1.22699967781247,"Approved","OW259"
"2023-05-06 21:00",1.22899967781247,"Approved","OW259"
"2023-05-06 22:00",1.23399967781247,"Approved","OW259"
"2023-05-06 23:00",1.22999967781247,"Approved","OW259"
"2023-05-07 00:00",1.22399967781247,"Approved","OW259"
"2023-05-07 01:00",1.22099967781247,"Approved","OW259"
"2023-05-07 02:00",1.22299967781247,"Approved","OW259"
"2023-05-07 03:00",1.22199967781247,"Approved","OW259"
"2023-05-07 04:00",1.22299967781247,"Approved","OW259"
"2023-05-07 05:00",1.21999967781247,"Approved","OW259"
"2023-05-07 06:00",1.21899967781247,"Approved","OW259"
"2023-05-07 07:00",1.22399967781247,"Approved","OW259"
"2023-05-07 08:00",1.22699967781247,"Approved","OW259"
"2023-05-07 09:00",1.22699967781247,"Approved","OW259"
"2023-05-07 10:00",1.22899967781247,"Approved","OW259"
"2023-05-07 11:00",1.23599967781247,"Approved","OW259"
"2023-05-07 12:00",1.23199967781247,"Approved","OW259"
"2023-05-07 13:00",1.22799967781247,"Approved","OW259"
"2023-05-07 14:00",1.23299967781247,"Approved","OW259"
"2023-05-07 15:00",1.22999967781247,"Approved","OW259"
"2023-05-07 16:00",1.22399967781247,"Approved","OW259"
"2023-05-07 17:00",1.23199967781247,"Approved","OW259"
"2023-05-07 18:00",1.22599967781247,"Approved","OW259"
"2023-05-07 19:00",1.23599967781247,"Approved","OW259"
"2023-05-07 20:00",1.23599967781247,"Approved","OW259"
"2023-05-07 21:00",1.23999967781247,"Approved","OW259"
"2023-05-07 22:00",1.23299967781247,"Approved","OW259"
"2023-05-07 23:00",1.23499967781247,"Approved","OW259"
"2023-05-08 00:00",1.22699967781247,"Approved","OW259"
"2023-05-08 01:00",1.22299967781247,"Approved","OW259"
"2023-05-08 02:00",1.21999967781247,"Approved","OW259"
"2023-05-08 03:00",1.21499967781247,"Approved","OW259"
"2023-05-08 04:00",1.21599967781247,"Approved","OW259"
"2023-05-08 05:00",1.21199967781247,"Approved","OW259"
"2023-05-08 06:00",1.21499967781247,"Approved","OW259"
"2023-05-08 07:00",1.22199967781247,"Approved","OW259"
"2023-05-08 08:00",1.22099967781247,"Approved","OW259"
"2023-05-08 09:00",1.29799967781247,"Approved","OW259"
"2023-05-08 10:00",1.24599967781247,"Approved","OW259"
"2023-05-08 11:00",1.24699967781247,"Approved","OW259"
"2023-05-08 12:00",1.25099967781247,"Approved","OW259"
"2023-05-08 13:00",1.23899967781247,"Approved","OW259"
"2023-05-08 14:00",1.23299967781247,"Approved","OW259"
"2023-05-08 15:00",1.23099967781247,"Approved","OW259"
"2023-05-08 16:00",1.22999967781247,"Approved","OW259"
"2023-05-08 17:00",1.23499967781247,"Approved","OW259"
"2023-05-08 18:00",1.23199967781247,"Approved","OW259"
"2023-05-08 19:00",1.23799967781247,"Approved","OW259"
"2023-05-08 20:00",1.23999967781247,"Approved","OW259"
"2023-05-08 21:00",1.24199967781247,"Approved","OW259"
"2023-05-08 22:00",1.24499967781247,"Approved","OW259"
"2023-05-08 23:00",1.24699967781247,"Approved","OW259"
"2023-05-09 00:00",1.24399967781247,"Approved","OW259"
"2023-05-09 01:00",1.23999967781247,"Approved","OW259"
"2023-05-09 02:00",1.24099967781247,"Approved","OW259"
"2023-05-09 03:00",1.24299967781247,"Approved","OW259"
"2023-05-09 04:00",1.24399967781247,"Approved","OW259"
"2023-05-09 05:00",1.24399967781247,"Approved","OW259"
"2023-05-09 06:00",1.24499967781247,"Approved","OW259"
"2023-05-09 07:00",1.25699967781247,"Approved","OW259"
"2023-05-09 08:00",1.26999967781247,"Approved","OW259"
"2023-05-09 09:00",1.26799967781247,"Approved","OW259"
"2023-05-09 10:00",1.27799967781247,"Approved","OW259"
"2023-05-09 11:00",1.27699967781247,"Approved","OW259"
"2023-05-09 12:00",1.28099967781247,"Approved","OW259"
"2023-05-09 13:00",1.27599967781247,"Approved","OW259"
"2023-05-09 14:00",1.26599967781247,"Approved","OW259"
"2023-05-09 15:00",1.26499967781247,"Approved","OW259"
"2023-05-09 16:00",1.25899967781247,"Approved","OW259"
"2023-05-09 17:00",1.25699967781247,"Approved","OW259"
"2023-05-09 18:00",1.26399967781247,"Approved","OW259"
"2023-05-09 19:00",1.33799967781247,"Approved","OW259"
"2023-05-09 20:00",1.28999967781247,"Approved","OW259"
"2023-05-09 21:00",1.28299967781247,"Approved","OW259"
"2023-05-09 22:00",1.27199967781247,"Approved","OW259"
"2023-05-09 23:00",1.26499967781247,"Approved","OW259"
"2023-05-10 00:00",1.25799967781247,"Approved","OW259"
"2023-05-10 01:00",1.25299967781247,"Approved","OW259"
"2023-05-10 02:00",1.24999967781247,"Approved","OW259"
"2023-05-10 03:00",1.25299967781247,"Approved","OW259"
"2023-05-10 04:00",1.24899967781247,"Approved","OW259"
"2023-05-10 05:00",1.25199967781247,"Approved","OW259"
"2023-05-10 06:00",1.25899967781247,"Approved","OW259"
"2023-05-10 07:00",1.26399967781247,"Approved","OW259"
"2023-05-10 08:00",1.26699967781247,"Approved","OW259"
"2023-05-10 09:00",1.27699967781247,"Approved","OW259"
"2023-05-10 10:00",1.27599967781247,"Approved","OW259"
"2023-05-10 11:00",1.26799967781247,"Approved","OW259"
"2023-05-10 12:00",1.26899967781247,"Approved","OW259"
"2023-05-10 13:00",1.27499967781247,"Approved","OW259"
"2023-05-10 14:00",1.27699967781247,"Approved","OW259"
"2023-05-10 15:00",1.27499967781247,"Approved","OW259"
"2023-05-10 16:00",1.27699967781247,"Approved","OW259"
"2023-05-10 17:00",1.28399967781247,"Approved","OW259"
"2023-05-10 18:00",1.27799967781247,"Approved","OW259"
"2023-05-10 19:00",1.27699967781247,"Approved","OW259"
"2023-05-10 20:00",1.27899967781247,"Approved","OW259"
"2023-05-10 21:00",1.27599967781247,"Approved","OW259"
"2023-05-10 22:00",1.27199967781247,"Approved","OW259"
"2023-05-10 23:00",1.26799967781247,"Approved","OW259"
"2023-05-11 00:00",1.26999967781247,"Approved","OW259"
"2023-05-11 01:00",1.26399967781247,"Approved","OW259"
"2023-05-11 02:00",1.26099967781247,"Approved","OW259"
"2023-05-11 03:00",1.26099967781247,"Approved","OW259"
"2023-05-11 04:00",1.25899967781247,"Approved","OW259"
"2023-05-11 05:00",1.26199967781247,"Approved","OW259"
"2023-05-11 06:00",1.26299967781247,"Approved","OW259"
"2023-05-11 07:00",1.27099967781247,"Approved","OW259"
"2023-05-11 08:00",1.27099967781247,"Approved","OW259"
"2023-05-11 09:00",1.27699967781247,"Approved","OW259"
"2023-05-11 10:00",1.27699967781247,"Approved","OW259"
"2023-05-11 11:00",1.28399967781247,"Approved","OW259"
"2023-05-11 12:00",1.28399967781247,"Approved","OW259"
"2023-05-11 13:00",1.27799967781247,"Approved","OW259"
"2023-05-11 14:00",1.27399967781247,"Approved","OW259"
"2023-05-11 15:00",1.27399967781247,"Approved","OW259"
"2023-05-11 16:00",1.27299967781247,"Approved","OW259"
"2023-05-11 17:00",1.26999967781247,"Approved","OW259"
"2023-05-11 18:00",1.26799967781247,"Approved","OW259"
"2023-05-11 19:00",1.26399967781247,"Approved","OW259"
"2023-05-11 20:00",1.28699967781247,"Approved","OW259"
"2023-05-11 21:00",1.29399967781247,"Approved","OW259"
"2023-05-11 22:00",1.30099967781247,"Approved","OW259"
"2023-05-11 23:00",1.30599967781247,"Approved","OW259"
"2023-05-12 00:00",1.30899967781247,"Approved","OW259"
"2023-05-12 01:00",1.31299967781247,"Approved","OW259"
"2023-05-12 02:00",1.32399967781247,"Approved","OW259"
"2023-05-12 03:00",1.32499967781247,"Approved","OW259"
"2023-05-12 04:00",1.32499967781247,"Approved","OW259"
"2023-05-12 05:00",1.32799967781247,"Approved","OW259"
"2023-05-12 06:00",1.33299967781247,"Approved","OW259"
"2023-05-12 07:00",1.31899967781247,"Approved","OW259"
"2023-05-12 08:00",1.32399967781247,"Approved","OW259"
"2023-05-12 09:00",1.31599967781247,"Approved","OW259"
"2023-05-12 10:00",1.31499967781247,"Approved","OW259"
"2023-05-12 11:00",1.31099967781247,"Approved","OW259"
"2023-05-12 12:00",1.30699967781247,"Approved","OW259"
"2023-05-12 13:00",1.30999967781247,"Approved","OW259"
"2023-05-12 14:00",1.30499967781247,"Approved","OW259"
"2023-05-12 15:00",1.30599967781247,"Approved","OW259"
"2023-05-12 16:00",1.29899967781247,"Approved","OW259"
"2023-05-12 17:00",1.30699967781247,"Approved","OW259"
"2023-05-12 18:00",1.30599967781247,"Approved","OW259"
"2023-05-12 19:00",1.30399967781247,"Approved","OW259"
"2023-05-12 20:00",1.30799967781247,"Approved","OW259"
"2023-05-12 21:00",1.30999967781247,"Approved","OW259"
"2023-05-12 22:00",1.30499967781247,"Approved","OW259"
"2023-05-12 23:00",1.31199967781247,"Approved","OW259"
"2023-05-13 00:00",1.30599967781247,"Approved","OW259"
"2023-05-13 01:00",1.29899967781247,"Approved","OW259"
"2023-05-13 02:00",1.29899967781247,"Approved","OW259"
"2023-05-13 03:00",1.29799967781247,"Approved","OW259"
"2023-05-13 04:00",1.29799967781247,"Approved","OW259"
"2023-05-13 05:00",1.29899967781247,"Approved","OW259"
"2023-05-13 06:00",1.29699967781247,"Approved","OW259"
"2023-05-13 07:00",1.30099967781247,"Approved","OW259"
"2023-05-13 08:00",1.30699967781247,"Approved","OW259"
"2023-05-13 09:00",1.31699967781247,"Approved","OW259"
"2023-05-13 10:00",1.36499967781247,"Approved","OW259"
"2023-05-13 11:00",1.34199967781247,"Approved","OW259"
"2023-05-13 12:00",1.33799967781247,"Approved","OW259"
"2023-05-13 13:00",1.32899967781247,"Approved","OW259"
"2023-05-13 14:00",1.31599967781247,"Approved","OW259"
"2023-05-13 15:00",1.31599967781247,"Approved","OW259"
"2023-05-13 16:00",1.31299967781247,"Approved","OW259"
"2023-05-13 17:00",1.30799967781247,"Approved","OW259"
"2023-05-13 18:00",1.32399967781247,"Approved","OW259"
"2023-05-13 19:00",1.33199967781247,"Approved","OW259"
"2023-05-13 20:00",1.32899967781247,"Approved","OW259"
"2023-05-13 21:00",1.32199967781247,"Approved","OW259"
"2023-05-13 22:00",1.32799967781247,"Approved","OW259"
"2023-05-13 23:00",1.32399967781247,"Approved","OW259"
"2023-05-14 00:00",1.32299967781247,"Approved","OW259"
"2023-05-14 01:00",1.31499967781247,"Approved","OW259"
"2023-05-14 02:00",1.30799967781247,"Approved","OW259"
"2023-05-14 03:00",1.30799967781247,"Approved","OW259"
"2023-05-14 04:00",1.30199967781247,"Approved","OW259"
"2023-05-14 05:00",1.30099967781247,"Approved","OW259"
"2023-05-14 06:00",1.30099967781247,"Approved","OW259"
"2023-05-14 07:00",1.30399967781247,"Approved","OW259"
"2023-05-14 08:00",1.31199967781247,"Approved","OW259"
"2023-05-14 09:00",1.32599967781247,"Approved","OW259"
"2023-05-14 10:00",1.33199967781247,"Approved","OW259"
"2023-05-14 11:00",1.32999967781247,"Approved","OW259"
"2023-05-14 12:00",1.33499967781247,"Approved","OW259"
"2023-05-14 13:00",1.34299967781247,"Approved","OW259"
"2023-05-14 14:00",1.33299967781247,"Approved","OW259"
"2023-05-14 15:00",1.33399967781247,"Approved","OW259"
"2023-05-14 16:00",1.33599967781247,"Approved","OW259"
"2023-05-14 17:00",1.32899967781247,"Approved","OW259"
"2023-05-14 18:00",1.33799967781247,"Approved","OW259"
"2023-05-14 19:00",1.34199967781247,"Approved","OW259"
"2023-05-14 20:00",1.34199967781247,"Approved","OW259"
"2023-05-14 21:00",1.34299967781247,"Approved","OW259"
"2023-05-14 22:00",1.34699967781247,"Approved","OW259"
"2023-05-14 23:00",1.34199967781247,"Approved","OW259"
"2023-05-15 00:00",1.33199967781247,"Approved","OW259"
"2023-05-15 01:00",1.32699967781247,"Approved","OW259"
"2023-05-15 02:00",1.32399967781247,"Approved","OW259"
"2023-05-15 03:00",1.31899967781247,"Approved","OW259"
"2023-05-15 04:00",1.31699967781247,"Approved","OW259"
"2023-05-15 05:00",1.32199967781247,"Approved","OW259"
"2023-05-15 06:00",1.32199967781247,"Approved","OW259"
"2023-05-15 07:00",1.32599967781247,"Approved","OW259"
"2023-05-15 08:00",1.33399967781247,"Approved","OW259"
"2023-05-15 09:00",1.33599967781247,"Approved","OW259"
"2023-05-15 10:00",1.34299967781247,"Approved","OW259"
"2023-05-15 11:00",1.34899967781247,"Approved","OW259"
"2023-05-15 12:00",1.34899967781247,"Approved","OW259"
"2023-05-15 13:00",1.33499967781247,"Approved","OW259"
"2023-05-15 14:00",1.32699967781247,"Approved","OW259"
"2023-05-15 15:00",1.32099967781247,"Approved","OW259"
"2023-05-15 16:00",1.31999967781247,"Approved","OW259"
"2023-05-15 17:00",1.35299967781247,"Approved","OW259"
"2023-05-15 18:00",1.33099967781247,"Approved","OW259"
"2023-05-15 19:00",1.33399967781247,"Approved","OW259"
"2023-05-15 20:00",1.33399967781247,"Approved","OW259"
"2023-05-15 21:00",1.34499967781247,"Approved","OW259"
"2023-05-15 22:00",1.33799967781247,"Approved","OW259"
"2023-05-15 23:00",1.33599967781247,"Approved","OW259"
"2023-05-16 00:00",1.33799967781247,"Approved","OW259"
"2023-05-16 01:00",1.33399967781247,"Approved","OW259"
"2023-05-16 02:00",1.33499967781247,"Approved","OW259"
"2023-05-16 03:00",1.33699967781247,"Approved","OW259"
"2023-05-16 04:00",1.33099967781247,"Approved","OW259"
"2023-05-16 05:00",1.34399967781247,"Approved","OW259"
"2023-05-16 06:00",1.34099967781247,"Approved","OW259"
"2023-05-16 07:00",1.34499967781247,"Approved","OW259"
"2023-05-16 08:00",1.34899967781247,"Approved","OW259"
"2023-05-16 09:00",1.35299967781247,"Approved","OW259"
"2023-05-16 10:00",1.36499967781247,"Approved","OW259"
"2023-05-16 11:00",1.36699967781247,"Approved","OW259"
"2023-05-16 12:00",1.36499967781247,"Approved","OW259"
"2023-05-16 13:00",1.36799967781247,"Approved","OW259"
"2023-05-16 14:00",1.36499967781247,"Approved","OW259"
"2023-05-16 15:00",1.35599967781247,"Approved","OW259"
"2023-05-16 16:00",1.35199967781247,"Approved","OW259"
"2023-05-16 17:00",1.35899967781247,"Approved","OW259"
"2023-05-16 18:00",1.36599967781247,"Approved","OW259"
"2023-05-16 19:00",1.46999967781247,"Approved","OW259"
"2023-05-16 20:00",1.40099967781247,"Approved","OW259"
"2023-05-16 21:00",1.39899967781247,"Approved","OW259"
"2023-05-16 22:00",1.39699967781247,"Approved","OW259"
"2023-05-16 23:00",1.38499967781247,"Approved","OW259"
"2023-05-17 00:00",1.38199967781247,"Approved","OW259"
"2023-05-17 01:00",1.37799967781247,"Approved","OW259"
"2023-05-17 02:00",1.38199967781247,"Approved","OW259"
"2023-05-17 03:00",1.37999967781247,"Approved","OW259"
"2023-05-17 04:00",1.37799967781247,"Approved","OW259"
"2023-05-17 05:00",1.37299967781247,"Approved","OW259"
"2023-05-17 06:00",1.37599967781247,"Approved","OW259"
"2023-05-17 07:00",1.38599967781247,"Approved","OW259"
"2023-05-17 08:00",1.38499967781247,"Approved","OW259"
"2023-05-17 09:00",1.39199967781247,"Approved","OW259"
"2023-05-17 10:00",1.38799967781247,"Approved","OW259"
"2023-05-17 11:00",1.38299967781247,"Approved","OW259"
"2023-05-17 12:00",1.38299967781247,"Approved","OW259"
"2023-05-17 13:00",1.38499967781247,"Approved","OW259"
"2023-05-17 14:00",1.37199967781247,"Approved","OW259"
"2023-05-17 15:00",1.37199967781247,"Approved","OW259"
"2023-05-17 16:00",1.36699967781247,"Approved","OW259"
"2023-05-17 17:00",1.35799967781247,"Approved","OW259"
"2023-05-17 18:00",1.36099967781247,"Approved","OW259"
"2023-05-17 19:00",1.36899967781247,"Approved","OW259"
"2023-05-17 20:00",1.36599967781247,"Approved","OW259"
"2023-05-17 21:00",1.39799967781247,"Approved","OW259"
"2023-05-17 22:00",1.39199967781247,"Approved","OW259"
"2023-05-17 23:00",1.37599967781247,"Approved","OW259"
"2023-05-18 00:00",1.36599967781247,"Approved","OW259"
"2023-05-18 01:00",1.36699967781247,"Approved","OW259"
"2023-05-18 02:00",1.35399967781247,"Approved","OW259"
"2023-05-18 03:00",1.35299967781247,"Approved","OW259"
"2023-05-18 04:00",1.35099967781247,"Approved","OW259"
"2023-05-18 05:00",1.34999967781247,"Approved","OW259"
"2023-05-18 06:00",1.34799967781247,"Approved","OW259"
"2023-05-18 07:00",1.35299967781247,"Approved","OW259"
"2023-05-18 08:00",1.35899967781247,"Approved","OW259"
"2023-05-18 09:00",1.36199967781247,"Approved","OW259"
"2023-05-18 10:00",1.35899967781247,"Approved","OW259"
"2023-05-18 11:00",1.36199967781247,"Approved","OW259"
"2023-05-18 12:00",1.36099967781247,"Approved","OW259"
"2023-05-18 13:00",1.36399967781247,"Approved","OW259"
"2023-05-18 14:00",1.35999967781247,"Approved","OW259"
"2023-05-18 15:00",1.35999967781247,"Approved","OW259"
"2023-05-18 16:00",1.35399967781247,"Approved","OW259"
"2023-05-18 17:00",1.39499967781247,"Approved","OW259"
"2023-05-18 18:00",1.38899967781247,"Approved","OW259"
"2023-05-18 19:00",1.38099967781247,"Approved","OW259"
"2023-05-18 20:00",1.38999967781247,"Approved","OW259"
"2023-05-18 21:00",1.38599967781247,"Approved","OW259"
"2023-05-18 22:00",1.39199967781247,"Approved","OW259"
"2023-05-18 23:00",1.38399967781247,"Approved","OW259"
"2023-05-19 00:00",1.37999967781247,"Approved","OW259"
"2023-05-19 01:00",1.37099967781247,"Approved","OW259"
"2023-05-19 02:00",1.36699967781247,"Approved","OW259"
"2023-05-19 03:00",1.36799967781247,"Approved","OW259"
"2023-05-19 04:00",1.36399967781247,"Approved","OW259"
"2023-05-19 05:00",1.36599967781247,"Approved","OW259"
"2023-05-19 06:00",1.36799967781247,"Approved","OW259"
"2023-05-19 07:00",1.37399967781247,"Approved","OW259"
"2023-05-19 08:00",1.37599967781247,"Approved","OW259"
"2023-05-19 09:00",1.37999967781247,"Approved","OW259"
"2023-05-19 10:00",1.38399967781247,"Approved","OW259"
"2023-05-19 11:00",1.39999967781247,"Approved","OW259"
"2023-05-19 12:00",1.38999967781247,"Approved","OW259"
"2023-05-19 13:00",1.38499967781247,"Approved","OW259"
"2023-05-19 14:00",1.38599967781247,"Approved","OW259"
"2023-05-19 15:00",1.37299967781247,"Approved","OW259"
"2023-05-19 16:00",1.37299967781247,"Approved","OW259"
"2023-05-19 17:00",1.37099967781247,"Approved","OW259"
"2023-05-19 18:00",1.36999967781247,"Approved","OW259"
"2023-05-19 19:00",1.37199967781247,"Approved","OW259"
"2023-05-19 20:00",1.37899967781247,"Approved","OW259"
"2023-05-19 21:00",1.38099967781247,"Approved","OW259"
"2023-05-19 22:00",1.37799967781247,"Approved","OW259"
"2023-05-19 23:00",1.37599967781247,"Approved","OW259"
"2023-05-20 00:00",1.37899967781247,"Approved","OW259"
"2023-05-20 01:00",1.37099967781247,"Approved","OW259"
"2023-05-20 02:00",1.37199967781247,"Approved","OW259"
"2023-05-20 03:00",1.36699967781247,"Approved","OW259"
"2023-05-20 04:00",1.36799967781247,"Approved","OW259"
"2023-05-20 05:00",1.36399967781247,"Approved","OW259"
"2023-05-20 06:00",1.36699967781247,"Approved","OW259"
"2023-05-20 07:00",1.37499967781247,"Approved","OW259"
"2023-05-20 08:00",1.39399967781247,"Approved","OW259"
"2023-05-20 09:00",1.39899967781247,"Approved","OW259"
"2023-05-20 10:00",1.40099967781247,"Approved","OW259"
"2023-05-20 11:00",1.40299967781247,"Approved","OW259"
"2023-05-20 12:00",1.40899967781247,"Approved","OW259"
"2023-05-20 13:00",1.41099967781247,"Approved","OW259"
"2023-05-20 14:00",1.40499967781247,"Approved","OW259"
"2023-05-20 15:00",1.40099967781247,"Approved","OW259"
"2023-05-20 16:00",1.41099967781247,"Approved","OW259"
"2023-05-20 17:00",1.40699967781247,"Approved","OW259"
"2023-05-20 18:00",1.59599967781247,"Approved","OW259"
"2023-05-20 19:00",1.43899967781247,"Approved","OW259"
"2023-05-20 20:00",1.43399967781247,"Approved","OW259"
"2023-05-20 21:00",1.43399967781247,"Approved","OW259"
"2023-05-20 22:00",1.43199967781247,"Approved","OW259"
"2023-05-20 23:00",1.43099967781247,"Approved","OW259"
"2023-05-21 00:00",1.42399967781247,"Approved","OW259"
"2023-05-21 01:00",1.42499967781247,"Approved","OW259"
"2023-05-21 02:00",1.42099967781247,"Approved","OW259"
"2023-05-21 03:00",1.42299967781247,"Approved","OW259"
"2023-05-21 04:00",1.42299967781247,"Approved","OW259"
"2023-05-21 05:00",1.42499967781247,"Approved","OW259"
"2023-05-21 06:00",1.41599967781247,"Approved","OW259"
"2023-05-21 07:00",1.41599967781247,"Approved","OW259"
"2023-05-21 08:00",1.41999967781247,"Approved","OW259"
"2023-05-21 09:00",1.42699967781247,"Approved","OW259"
"2023-05-21 10:00",1.42199967781247,"Approved","OW259"
"2023-05-21 11:00",1.42199967781247,"Approved","OW259"
"2023-05-21 12:00",1.42499967781247,"Approved","OW259"
"2023-05-21 13:00",1.42499967781247,"Approved","OW259"
"2023-05-21 14:00",1.42499967781247,"Approved","OW259"
"2023-05-21 15:00",1.42299967781247,"Approved","OW259"
"2023-05-21 16:00",1.41899967781247,"Approved","OW259"
"2023-05-21 17:00",1.41699967781247,"Approved","OW259"
"2023-05-21 18:00",1.42499967781247,"Approved","OW259"
"2023-05-21 19:00",1.41299967781247,"Approved","OW259"
"2023-05-21 20:00",1.41399967781247,"Approved","OW259"
"2023-05-21 21:00",1.40899967781247,"Approved","OW259"
"2023-05-21 22:00",1.41399967781247,"Approved","OW259"
"2023-05-21 23:00",1.40699967781247,"Approved","OW259"
"2023-05-22 00:00",1.40799967781247,"Approved","OW259"
"2023-05-22 01:00",1.40099967781247,"Approved","OW259"
"2023-05-22 02:00",1.39799967781247,"Approved","OW259"
"2023-05-22 03:00",1.39199967781247,"Approved","OW259"
"2023-05-22 04:00",1.39199967781247,"Approved","OW259"
"2023-05-22 05:00",1.38899967781247,"Approved","OW259"
"2023-05-22 06:00",1.39099967781247,"Approved","OW259"
"2023-05-22 07:00",1.39499967781247,"Approved","OW259"
"2023-05-22 08:00",1.39799967781247,"Approved","OW259"
"2023-05-22 09:00",1.39799967781247,"Approved","OW259"
"2023-05-22 10:00",1.39899967781247,"Approved","OW259"
"2023-05-22 11:00",1.40399967781247,"Approved","OW259"
"2023-05-22 12:00",1.40399967781247,"Approved","OW259"
"2023-05-22 13:00",1.40099967781247,"Approved","OW259"
"2023-05-22 14:00",1.39699967781247,"Approved","OW259"
"2023-05-22 15:00",1.40499967781247,"Approved","OW259"
"2023-05-22 16:00",1.40499967781247,"Approved","OW259"
"2023-05-22 17:00",1.41099967781247,"Approved","OW259"
"2023-05-22 18:00",1.40199967781247,"Approved","OW259"
"2023-05-22 19:00",1.40199967781247,"Approved","OW259"
"2023-05-22 20:00",1.40099967781247,"Approved","OW259"
"2023-05-22 21:00",1.39699967781247,"Approved","OW259"
"2023-05-22 22:00",1.40199967781247,"Approved","OW259"
"2023-05-22 23:00",1.39699967781247,"Approved","OW259"
"2023-05-23 00:00",1.39799967781247,"Approved","OW259"
"2023-05-23 01:00",1.39399967781247,"Approved","OW259"
"2023-05-23 02:00",1.39199967781247,"Approved","OW259"
"2023-05-23 03:00",1.38999967781247,"Approved","OW259"
"2023-05-23 04:00",1.38699967781247,"Approved","OW259"
"2023-05-23 05:00",1.38499967781247,"Approved","OW259"
"2023-05-23 06:00",1.38599967781247,"Approved","OW259"
"2023-05-23 07:00",1.39799967781247,"Approved","OW259"
"2023-05-23 08:00",1.39499967781247,"Approved","OW259"
"2023-05-23 09:00",1.39199967781247,"Approved","OW259"
"2023-05-23 10:00",1.39799967781247,"Approved","OW259"
"2023-05-23 11:00",1.39199967781247,"Approved","OW259"
"2023-05-23 12:00",1.39899967781247,"Approved","OW259"
"2023-05-23 13:00",1.40899967781247,"Approved","OW259"
"2023-05-23 14:00",1.40199967781247,"Approved","OW259"
"2023-05-23 15:00",1.39899967781247,"Approved","OW259"
"2023-05-23 16:00",1.40199967781247,"Approved","OW259"
"2023-05-23 17:00",1.40599967781247,"Approved","OW259"
"2023-05-23 18:00",1.39899967781247,"Approved","OW259"